GFSWCAN_700_temp_057.txt.gz
Temp
-9 -9 -9 -9 -9 -9 -8 -8 -8 -8 -7 -7 -8 -8 -8 -9 -9 -8 -9 -9 -8 -8 -8 -7 -6 -6 -5 -5 -4 -3 -3 -2 -3 -3 -3 -2 -1 0 1 1 3 4 4 3 3 3 3 5 5 5 5 5 5 4
-9 -9 -9 -9 -9 -9 -8 -8 -7 -8 -7 -8 -8 -8 -8 -9 -9 -9 -9 -8 -8 -8 -8 -7 -6 -6 -5 -4 -3 -3 -1 -1 -1 -2 -2 -2 -1 1 1 2 3 2 4 5 5 5 5 5 5 5 5 4 4 4
-9 -9 -9 -9 -9 -9 -8 -8 -8 -8 -8 -8 -8 -8 -9 -9 -9 -9 -9 -9 -9 -9 -8 -7 -6 -5 -5 -4 -3 -3 -2 -2 -1 -0 -1 -1 -1 0 1 1 2 3 3 4 4 5 5 5 5 5 4 4 4 3
-9 -9 -9 -9 -9 -9 -9 -9 -9 -9 -9 -9 -9 -10 -10 -10 -10 -10 -9 -9 -9 -8 -8 -8 -7 -5 -5 -4 -3 -2 -2 -3 -2 -2 -2 -1 -1 -0 1 1 2 3 3 4 4 4 4 4 4 4 4 4 3 3
-10 -10 -10 -9 -9 -9 -9 -9 -9 -10 -10 -10 -10 -10 -10 -10 -10 -9 -10 -10 -9 -9 -8 -7 -6 -5 -5 -5 -3 -3 -3 -3 -2 -2 -3 -2 -1 -0 0 1 1 2 3 3 4 4 4 4 4 4 3 3 3 3
-11 -10 -10 -10 -10 -10 -10 -10 -10 -10 -10 -11 -10 -10 -10 -10 -10 -10 -11 -10 -10 -10 -9 -8 -6 -4 -5 -4 -3 -2 -3 -3 -3 -3 -2 -2 -2 -1 -1 0 1 2 2 3 3 3 3 3 3 3 3 3 3 2
-11 -11 -11 -11 -11 -11 -11 -11 -11 -10 -10 -10 -11 -11 -11 -11 -10 -10 -10 -9 -9 -9 -9 -8 -7 -5 -4 -4 -3 -4 -3 -3 -3 -3 -2 -2 -2 -1 -1 -1 -0 1 2 2 2 3 3 3 3 3 3 2 2 2
-9 -10 -10 -11 -11 -10 -11 -11 -11 -11 -11 -11 -11 -11 -11 -11 -11 -11 -10 -10 -9 -8 -8 -7 -6 -5 -4 -3 -3 -2 -2 -2 -2 -2 -2 -2 -2 -2 -1 -1 -0 0 1 1 2 2 3 3 3 2 2 2 2 1
-10 -10 -10 -10 -10 -10 -11 -11 -11 -11 -11 -11 -11 -11 -11 -11 -11 -10 -9 -8 -8 -8 -8 -7 -5 -5 -4 -3 -3 -3 -3 -2 -3 -2 -3 -3 -2 -2 -1 -1 -1 -1 0 1 2 3 3 3 2 2 2 2 1 1
-9 -9 -10 -10 -10 -10 -10 -11 -11 -11 -11 -11 -11 -11 -11 -10 -9 -9 -9 -9 -8 -8 -8 -5 -5 -4 -4 -3 -3 -3 -2 -2 -2 -2 -2 -2 -1 -1 -1 -1 -1 -1 0 1 2 2 3 2 1 2 1 1 0 -0
-9 -9 -10 -10 -10 -10 -10 -9 -10 -11 -11 -10 -11 -11 -9 -9 -9 -9 -9 -8 -8 -8 -7 -5 -4 -3 -4 -3 -3 -3 -2 -3 -3 -2 -2 -2 -1 -1 -1 -1 -1 -1 -0 1 1 1 2 1 0 -0 0 -0 -0 -0
-9 -9 -9 -9 -9 -10 -10 -10 -10 -11 -10 -9 -9 -9 -9 -9 -9 -8 -8 -7 -6 -6 -5 -4 -4 -4 -4 -3 -4 -3 -3 -3 -3 -3 -3 -2 -2 -1 -1 -1 -2 -1 -1 -1 0 -0 -1 -1 -2 -2 -2 -2 -2 -3
-9 -9 -9 -9 -9 -9 -10 -10 -9 -9 -9 -9 -8 -9 -8 -8 -8 -7 -7 -6 -5 -4 -5 -4 -3 -4 -4 -4 -5 -4 -3 -3 -3 -3 -3 -3 -2 -1 -0 -1 -1 -2 -2 -2 -1 -2 -2 -2 -2 -2 -2 -3 -3 -5
-8 -8 -8 -9 -9 -9 -9 -10 -10 -9 -9 -9 -9 -9 -7 -6 -6 -6 -6 -6 -5 -3 -3 -3 -3 -5 -4 -4 -4 -4 -4 -3 -3 -3 -3 -2 -2 -2 -1 -3 -2 -2 -2 -2 -3 -3 -3 -3 -4 -4 -5 -6 -6 -6
-8 -8 -8 -9 -10 -10 -10 -10 -9 -8 -9 -8 -7 -8 -8 -7 -6 -6 -6 -5 -4 -4 -5 -5 -4 -4 -3 -4 -4 -4 -4 -4 -5 -5 -5 -3 -3 -3 -3 -3 -3 -4 -3 -3 -4 -4 -5 -5 -6 -6 -7 -7 -8 -8
-8 -8 -8 -8 -9 -8 -8 -9 -9 -9 -8 -8 -8 -9 -8 -7 -7 -6 -6 -5 -5 -5 -4 -4 -4 -4 -5 -4 -4 -6 -6 -7 -7 -7 -6 -5 -6 -5 -5 -5 -5 -5 -5 -6 -6 -6 -7 -8 -8 -8 -8 -9 -10 -10
-6 -6 -6 -7 -7 -8 -9 -9 -8 -8 -8 -9 -9 -8 -7 -7 -6 -6 -6 -5 -5 -4 -4 -4 -4 -5 -6 -6 -7 -8 -8 -8 -7 -7 -7 -7 -7 -6 -6 -6 -6 -7 -7 -7 -8 -8 -8 -9 -9 -10 -10 -10 -11 -11
-5 -6 -6 -7 -7 -8 -8 -9 -9 -9 -10 -9 -8 -8 -7 -6 -6 -6 -5 -5 -5 -5 -4 -4 -5 -6 -7 -9 -10 -10 -9 -8 -8 -7 -7 -7 -7 -7 -7 -7 -8 -8 -9 -9 -9 -10 -10 -10 -10 -10 -11 -11 -12 -12
-5 -5 -6 -7 -7 -8 -8 -9 -9 -10 -10 -9 -9 -8 -7 -7 -7 -6 -6 -6 -5 -5 -5 -5 -7 -9 -10 -11 -10 -10 -9 -9 -9 -8 -8 -8 -8 -8 -8 -8 -9 -10 -10 -10 -10 -11 -11 -11 -11 -12 -12 -12 -12 -12
-6 -7 -7 -6 -6 -7 -8 -10 -9 -10 -10 -10 -9 -8 -8 -7 -8 -7 -7 -6 -6 -6 -6 -10 -11 -12 -11 -11 -10 -10 -10 -10 -9 -9 -9 -9 -10 -10 -10 -10 -10 -11 -11 -11 -11 -11 -12 -12 -12 -12 -13 -13 -13 -14
-6 -6 -6 -6 -6 -7 -8 -10 -10 -11 -11 -11 -10 -9 -9 -9 -8 -8 -7 -8 -7 -8 -12 -13 -12 -12 -12 -11 -11 -11 -11 -11 -10 -10 -10 -11 -11 -11 -11 -11 -11 -11 -12 -12 -12 -12 -13 -13 -13 -13 -14 -14 -14 -15
-5 -6 -6 -7 -6 -7 -8 -9 -9 -10 -11 -11 -11 -11 -11 -10 -10 -10 -10 -7 -10 -13 -14 -14 -13 -13 -12 -12 -12 -12 -12 -11 -11 -11 -11 -12 -12 -12 -12 -12 -12 -13 -13 -13 -13 -13 -14 -14 -14 -14 -15 -15 -16 -16
-5 -6 -5 -4 -6 -8 -9 -10 -10 -10 -11 -12 -11 -11 -11 -11 -12 -12 -12 -13 -14 -15 -15 -14 -14 -14 -13 -13 -12 -12 -12 -12 -12 -12 -12 -13 -13 -13 -13 -13 -13 -14 -14 -14 -14 -14 -15 -15 -16 -16 -16 -17 -17 -17
-4 -3 -4 -5 -7 -9 -10 -10 -10 -10 -11 -11 -11 -12 -12 -13 -14 -14 -14 -15 -16 -16 -15 -15 -15 -15 -14 -14 -13 -13 -13 -13 -13 -13 -13 -13 -14 -14 -14 -14 -14 -14 -15 -15 -15 -16 -16 -16 -17 -17 -18 -18 -18 -19
-4 -5 -6 -7 -9 -9 -10 -11 -11 -11 -12 -12 -12 -13 -13 -13 -13 -15 -16 -16 -16 -16 -16 -16 -16 -15 -15 -14 -14 -14 -14 -14 -14 -14 -14 -15 -15 -15 -15 -15 -15 -16 -16 -16 -16 -17 -17 -18 -18 -18 -19 -19 -19 -20
-5 -7 -8 -9 -10 -10 -11 -12 -12 -13 -13 -12 -13 -14 -14 -14 -14 -15 -16 -16 -16 -16 -16 -16 -16 -16 -16 -15 -15 -15 -15 -15 -15 -15 -15 -15 -16 -16 -16 -16 -17 -17 -17 -17 -18 -18 -18 -19 -19 -19 -20 -20 -20 -21
-10 -11 -10 -10 -10 -10 -11 -12 -12 -12 -13 -13 -14 -14 -14 -14 -14 -15 -16 -16 -16 -17 -17 -16 -16 -16 -16 -16 -16 -16 -16 -16 -16 -17 -17 -17 -17 -17 -17 -17 -17 -18 -18 -18 -19 -19 -19 -20 -20 -20 -21 -21 -22 -22
-11 -12 -11 -11 -12 -12 -12 -12 -12 -13 -13 -14 -14 -14 -14 -14 -14 -15 -15 -16 -16 -17 -17 -17 -17 -17 -17 -17 -17 -17 -17 -17 -17 -17 -18 -18 -18 -18 -18 -18 -19 -19 -19 -19 -20 -20 -20 -20 -21 -21 -22 -22 -23 -23
-11 -12 -12 -12 -12 -12 -12 -13 -13 -14 -14 -14 -14 -14 -14 -14 -15 -15 -16 -16 -17 -17 -17 -17 -17 -18 -18 -18 -18 -18 -18 -18 -18 -18 -19 -19 -19 -19 -19 -20 -20 -20 -20 -20 -21 -21 -21 -21 -22 -22 -23 -23 -24 -24
-12 -12 -12 -12 -12 -13 -13 -14 -14 -15 -15 -15 -15 -15 -15 -16 -16 -17 -17 -17 -18 -18 -18 -18 -18 -19 -19 -19 -19 -19 -19 -19 -19 -19 -19 -20 -20 -20 -20 -20 -20 -21 -21 -21 -21 -21 -22 -22 -23 -23 -24 -24 -25 -26
-13 -13 -13 -13 -13 -14 -14 -15 -15 -15 -15 -16 -16 -16 -16 -17 -17 -18 -18 -18 -18 -19 -19 -19 -19 -19 -19 -19 -20 -20 -20 -20 -20 -20 -20 -20 -20 -21 -21 -21 -21 -21 -21 -21 -22 -22 -22 -22 -23 -23 -24 -25 -25 -26
-13 -13 -13 -13 -14 -14 -15 -15 -15 -16 -16 -16 -17 -17 -17 -18 -18 -18 -19 -19 -19 -19 -20 -20 -20 -20 -20 -20 -20 -20 -20 -20 -20 -21 -21 -21 -21 -21 -21 -21 -21 -22 -22 -22 -22 -22 -22 -23 -23 -24 -24 -25 -26 -26
-13 -14 -14 -14 -14 -14 -15 -15 -16 -16 -16 -17 -17 -18 -18 -18 -19 -19 -19 -20 -20 -20 -20 -20 -20 -20 -20 -20 -20 -21 -21 -21 -21 -21 -21 -21 -21 -21 -21 -21 -22 -22 -22 -22 -22 -22 -23 -23 -23 -24 -24 -25 -26 -26

GFSWCAN_700_temp_060.txt.gz
Temp
-9 -9 -9 -9 -8 -8 -8 -8 -8 -8 -8 -8 -8 -8 -8 -8 -8 -8 -8 -8 -8 -8 -8 -7 -7 -7 -6 -5 -5 -5 -4 -3 -3 -4 -3 -2 -1 0 1 2 3 3 3 2 2 2 3 5 5 5 6 5 5 5
-9 -9 -9 -9 -9 -9 -8 -8 -8 -8 -8 -7 -7 -8 -8 -8 -8 -8 -9 -9 -8 -8 -7 -7 -7 -7 -6 -5 -5 -4 -2 -2 -2 -3 -3 -2 -1 -0 1 1 2 2 3 4 4 4 5 5 6 5 5 5 5 5
-9 -9 -9 -8 -8 -8 -8 -8 -8 -8 -8 -7 -8 -8 -8 -8 -9 -9 -9 -9 -8 -8 -8 -8 -7 -7 -6 -5 -6 -4 -2 -2 -1 -1 -1 -1 -1 -0 0 1 1 2 2 2 3 4 4 5 5 5 5 5 5 4
-9 -9 -9 -8 -8 -8 -8 -7 -7 -7 -8 -8 -8 -8 -9 -9 -9 -9 -9 -8 -8 -8 -9 -7 -7 -7 -7 -6 -5 -4 -3 -3 -2 -1 -1 -2 -1 -1 -0 0 1 2 2 2 2 4 4 4 5 4 4 4 4 4
-9 -9 -9 -9 -9 -8 -8 -8 -8 -8 -8 -8 -9 -9 -9 -9 -9 -9 -8 -9 -9 -8 -8 -8 -7 -8 -6 -6 -5 -5 -3 -3 -2 -2 -2 -2 -2 -1 -1 -0 0 1 2 2 3 3 4 4 4 4 4 4 4 3
-10 -10 -10 -9 -9 -9 -9 -9 -9 -8 -8 -9 -9 -9 -9 -9 -9 -9 -9 -9 -9 -8 -7 -8 -7 -7 -6 -6 -5 -5 -5 -4 -3 -3 -3 -2 -2 -2 -1 -1 0 0 1 2 2 2 3 3 3 4 4 3 3 3
-11 -11 -10 -10 -10 -10 -10 -10 -9 -9 -9 -9 -9 -9 -9 -9 -9 -9 -9 -8 -8 -8 -9 -9 -8 -7 -6 -5 -5 -5 -4 -4 -4 -4 -3 -3 -2 -2 -2 -1 0 -0 0 0 1 2 2 2 3 3 3 3 3 3
-11 -11 -11 -11 -10 -10 -10 -10 -10 -10 -10 -10 -10 -9 -9 -9 -10 -10 -9 -8 -9 -9 -8 -9 -7 -7 -5 -4 -5 -4 -4 -4 -3 -3 -3 -2 -3 -3 -3 -1 0 -0 0 0 1 1 1 2 2 3 3 3 3 3
-11 -11 -11 -11 -11 -10 -10 -10 -10 -10 -10 -10 -10 -10 -10 -10 -10 -9 -9 -9 -9 -9 -9 -8 -6 -5 -5 -5 -5 -4 -4 -4 -4 -3 -3 -3 -3 -3 -2 -2 -1 -1 -0 -0 0 1 1 1 2 2 3 3 2 2
-9 -10 -10 -11 -11 -11 -10 -10 -10 -11 -10 -10 -10 -9 -9 -9 -9 -9 -9 -9 -10 -10 -8 -8 -7 -5 -4 -4 -4 -4 -4 -3 -3 -3 -3 -3 -3 -2 -3 -2 -2 -1 -1 -0 -0 -0 0 1 1 1 2 1 1 1
-9 -9 -9 -10 -11 -11 -10 -10 -10 -10 -10 -10 -10 -10 -10 -10 -9 -8 -9 -9 -8 -8 -9 -8 -7 -5 -4 -4 -3 -3 -3 -3 -3 -2 -2 -2 -3 -2 -2 -2 -1 -1 -1 -1 -1 -1 -0 -0 0 1 1 0 0 0
-9 -9 -8 -9 -10 -11 -10 -10 -9 -9 -10 -10 -10 -10 -9 -9 -9 -8 -9 -9 -8 -7 -7 -6 -6 -5 -4 -4 -3 -3 -3 -3 -3 -3 -3 -3 -2 -2 -2 -2 -2 -2 -1 -2 -1 -1 -0 0 0 0 0 -1 -2 -2
-9 -9 -9 -8 -9 -10 -10 -10 -10 -10 -10 -9 -9 -9 -9 -9 -9 -8 -8 -8 -7 -6 -6 -5 -5 -5 -5 -5 -4 -3 -3 -3 -3 -3 -3 -3 -2 -3 -2 -2 -2 -2 -2 -2 -2 -2 -2 -2 -2 -2 -2 -3 -3 -3
-9 -9 -10 -9 -9 -9 -9 -10 -10 -10 -9 -9 -9 -9 -8 -8 -8 -7 -8 -7 -6 -5 -5 -6 -5 -5 -5 -5 -4 -4 -4 -4 -4 -4 -4 -4 -3 -3 -3 -3 -3 -2 -2 -2 -3 -3 -3 -3 -3 -3 -4 -5 -5 -6
-9 -9 -9 -10 -10 -10 -9 -9 -9 -9 -9 -8 -8 -8 -9 -9 -8 -7 -7 -7 -5 -5 -4 -5 -5 -5 -5 -5 -4 -5 -5 -5 -6 -6 -6 -5 -4 -5 -5 -4 -4 -3 -3 -4 -4 -4 -4 -5 -5 -5 -6 -6 -6 -7
-8 -8 -9 -10 -10 -11 -10 -9 -9 -9 -9 -9 -9 -10 -9 -9 -7 -7 -7 -5 -6 -5 -5 -5 -5 -5 -5 -5 -5 -6 -7 -8 -8 -7 -7 -7 -6 -5 -5 -5 -5 -5 -5 -6 -6 -6 -6 -7 -7 -7 -7 -8 -8 -9
-7 -7 -8 -8 -8 -9 -9 -9 -9 -9 -10 -11 -10 -9 -9 -8 -7 -7 -6 -6 -6 -5 -5 -5 -5 -6 -7 -7 -8 -8 -10 -9 -8 -8 -7 -7 -7 -6 -6 -6 -6 -7 -7 -7 -7 -8 -8 -8 -8 -9 -9 -10 -10 -10
-7 -7 -8 -8 -8 -9 -10 -9 -9 -10 -11 -10 -10 -9 -8 -7 -7 -6 -6 -6 -6 -5 -5 -5 -6 -7 -8 -10 -11 -11 -10 -9 -9 -8 -8 -8 -8 -7 -7 -7 -8 -8 -8 -9 -9 -9 -10 -10 -10 -10 -11 -11 -11 -12
-7 -7 -7 -8 -8 -9 -9 -9 -10 -11 -11 -10 -10 -9 -8 -8 -7 -7 -6 -6 -5 -5 -5 -6 -8 -10 -11 -11 -11 -10 -10 -10 -10 -9 -9 -8 -8 -8 -9 -9 -10 -10 -10 -10 -11 -11 -11 -11 -11 -12 -12 -12 -12 -13
-7 -7 -7 -8 -8 -8 -9 -10 -10 -11 -11 -10 -9 -8 -7 -7 -7 -7 -7 -6 -6 -6 -6 -10 -12 -12 -12 -11 -11 -11 -11 -11 -10 -10 -10 -10 -10 -10 -10 -11 -11 -11 -11 -11 -11 -11 -12 -12 -12 -12 -13 -13 -13 -13
-7 -8 -8 -8 -8 -8 -9 -10 -11 -11 -11 -11 -10 -9 -10 -10 -8 -8 -6 -6 -5 -7 -11 -12 -12 -12 -12 -12 -12 -12 -12 -12 -11 -11 -11 -11 -11 -11 -11 -11 -12 -12 -12 -12 -12 -12 -12 -13 -13 -13 -13 -14 -14 -14
-7 -7 -8 -7 -7 -8 -9 -10 -10 -10 -11 -11 -11 -10 -10 -10 -9 -9 -9 -6 -9 -13 -13 -13 -13 -12 -12 -12 -12 -12 -12 -12 -12 -12 -12 -12 -12 -12 -12 -12 -12 -13 -13 -13 -13 -13 -13 -14 -14 -14 -15 -15 -15 -16
-6 -7 -6 -6 -7 -9 -10 -10 -10 -10 -11 -11 -11 -11 -11 -10 -11 -11 -11 -12 -14 -14 -15 -14 -14 -14 -13 -13 -13 -13 -13 -13 -12 -12 -13 -13 -13 -13 -13 -13 -13 -13 -14 -14 -14 -14 -14 -15 -15 -15 -16 -16 -16 -17
-6 -6 -5 -6 -8 -9 -10 -10 -10 -10 -11 -11 -11 -12 -12 -12 -13 -13 -13 -14 -15 -15 -15 -15 -15 -15 -15 -15 -14 -14 -14 -14 -14 -14 -14 -14 -14 -14 -14 -14 -14 -14 -15 -15 -15 -15 -15 -16 -16 -17 -17 -17 -18 -18
-6 -6 -6 -7 -8 -9 -10 -10 -10 -11 -11 -11 -11 -12 -13 -13 -13 -15 -15 -16 -16 -16 -16 -16 -16 -16 -15 -15 -15 -14 -14 -15 -15 -15 -15 -15 -15 -15 -15 -15 -15 -15 -16 -16 -16 -16 -17 -17 -18 -18 -18 -19 -19 -19
-5 -7 -7 -8 -9 -9 -10 -11 -11 -11 -12 -12 -13 -13 -13 -14 -14 -15 -16 -16 -16 -16 -16 -16 -16 -16 -16 -16 -16 -16 -16 -16 -15 -15 -16 -16 -16 -16 -16 -16 -16 -17 -17 -17 -18 -18 -18 -19 -19 -19 -19 -19 -20 -20
-8 -10 -9 -9 -9 -10 -11 -11 -12 -12 -12 -13 -13 -13 -14 -14 -14 -15 -16 -16 -17 -17 -17 -17 -17 -17 -17 -17 -17 -17 -16 -16 -17 -17 -17 -17 -17 -17 -18 -18 -18 -18 -18 -19 -19 -19 -19 -19 -20 -20 -20 -20 -20 -21
-10 -11 -11 -11 -11 -11 -11 -12 -12 -13 -13 -13 -14 -14 -14 -13 -14 -15 -16 -16 -17 -17 -17 -17 -17 -17 -17 -17 -17 -18 -18 -18 -18 -18 -18 -18 -18 -19 -19 -19 -19 -19 -19 -19 -19 -20 -20 -20 -20 -20 -20 -21 -21 -22
-11 -12 -12 -12 -12 -12 -12 -13 -13 -14 -14 -14 -14 -14 -14 -14 -15 -15 -16 -17 -17 -17 -18 -18 -18 -18 -18 -18 -19 -19 -19 -19 -19 -19 -19 -19 -19 -19 -19 -19 -19 -20 -20 -20 -20 -20 -20 -20 -20 -21 -21 -21 -22 -22
-12 -12 -12 -12 -12 -13 -14 -14 -14 -14 -15 -15 -15 -15 -15 -15 -16 -17 -17 -18 -18 -18 -18 -18 -19 -19 -19 -19 -19 -19 -19 -19 -19 -19 -20 -20 -20 -20 -20 -20 -20 -20 -20 -20 -20 -21 -21 -21 -21 -21 -22 -22 -23 -23
-13 -13 -13 -13 -13 -14 -14 -14 -15 -15 -15 -16 -16 -16 -16 -17 -17 -18 -18 -18 -18 -19 -19 -19 -19 -20 -20 -19 -20 -20 -20 -20 -20 -20 -20 -20 -20 -20 -21 -21 -21 -21 -21 -21 -21 -21 -21 -21 -22 -22 -22 -23 -23 -24
-13 -13 -13 -14 -14 -14 -15 -15 -15 -16 -16 -16 -17 -17 -17 -18 -18 -18 -19 -19 -19 -19 -20 -20 -20 -20 -20 -20 -20 -20 -20 -20 -20 -20 -20 -21 -21 -21 -21 -21 -21 -21 -21 -21 -21 -22 -22 -22 -22 -22 -23 -23 -23 -24
-13 -14 -14 -14 -14 -15 -15 -15 -16 -16 -16 -17 -17 -18 -18 -18 -19 -19 -19 -19 -20 -20 -20 -20 -20 -20 -20 -20 -20 -20 -20 -20 -21 -21 -21 -21 -21 -21 -21 -21 -21 -21 -21 -22 -22 -22 -22 -22 -23 -23 -23 -23 -24 -24

GFSWCAN_700_temp_063.txt.gz
Temp
-8 -8 -8 -8 -8 -8 -8 -8 -8 -9 -9 -9 -8 -8 -8 -8 -7 -7 -7 -8 -8 -7 -7 -6 -6 -6 -6 -5 -4 -4 -3 -3 -3 -3 -2 -0 0 2 3 3 2 2 1 1 2 3 3 5 5 5 6 6 6 6
-9 -8 -8 -8 -8 -8 -8 -8 -8 -9 -8 -8 -8 -8 -8 -7 -7 -8 -8 -8 -8 -7 -6 -6 -6 -6 -6 -5 -4 -4 -4 -3 -3 -2 -2 -1 -0 0 1 2 2 1 3 3 3 4 4 5 5 5 5 6 5 5
-8 -8 -8 -8 -8 -8 -8 -8 -8 -8 -8 -8 -8 -8 -8 -8 -7 -8 -7 -8 -8 -7 -7 -7 -7 -6 -6 -6 -5 -4 -4 -3 -3 -2 -2 -2 -1 -0 0 1 3 2 2 3 3 3 4 4 5 5 5 5 5 5
-8 -8 -8 -8 -8 -8 -8 -8 -8 -8 -8 -8 -8 -8 -8 -8 -8 -8 -8 -8 -8 -7 -7 -7 -7 -6 -6 -5 -5 -5 -4 -4 -3 -3 -2 -2 -1 0 -0 1 1 2 2 2 2 2 3 4 4 4 5 4 4 4
-8 -8 -8 -8 -8 -8 -8 -8 -8 -8 -8 -8 -8 -8 -8 -8 -8 -8 -8 -8 -8 -8 -7 -7 -6 -6 -6 -6 -5 -4 -3 -4 -4 -4 -3 -3 -2 -1 -1 -0 0 1 2 1 1 2 3 3 3 3 3 4 4 4
-9 -9 -8 -8 -8 -8 -8 -7 -8 -8 -8 -8 -8 -8 -8 -8 -8 -8 -8 -8 -8 -8 -7 -7 -7 -7 -6 -6 -5 -5 -5 -4 -5 -4 -4 -3 -2 -1 -1 -0 0 2 1 1 1 1 1 2 3 3 3 3 4 4
-10 -9 -9 -8 -8 -9 -8 -8 -8 -8 -8 -8 -8 -8 -9 -9 -8 -8 -8 -8 -8 -8 -8 -8 -8 -7 -7 -7 -6 -6 -6 -5 -4 -4 -3 -3 -2 -2 -2 -2 2 1 0 0 1 0 1 1 2 2 2 3 3 3
-10 -10 -10 -9 -9 -8 -8 -8 -8 -8 -9 -9 -9 -9 -9 -9 -9 -9 -8 -7 -8 -8 -8 -8 -8 -7 -6 -6 -6 -5 -5 -5 -5 -4 -4 -3 -3 -2 -3 -0 3 1 0 -0 -1 -0 0 1 1 2 2 2 2 2
-10 -10 -10 -10 -10 -10 -10 -10 -9 -9 -9 -9 -9 -10 -9 -9 -9 -8 -8 -8 -8 -9 -8 -8 -7 -6 -5 -5 -6 -6 -5 -5 -5 -4 -4 -3 -3 -3 -2 1 -0 -1 -1 -1 -1 -1 0 1 1 1 2 2 2 2
-10 -10 -10 -10 -10 -10 -10 -10 -10 -9 -9 -9 -10 -10 -9 -9 -9 -9 -9 -9 -9 -8 -8 -7 -7 -6 -5 -5 -5 -5 -4 -4 -4 -4 -4 -4 -3 -3 -2 -2 -2 -2 -1 -2 -1 -0 -0 0 0 0 0 1 1 1
-10 -10 -10 -10 -10 -10 -10 -10 -10 -10 -10 -10 -10 -9 -10 -9 -9 -9 -8 -8 -8 -8 -7 -7 -7 -6 -6 -6 -5 -5 -4 -4 -3 -3 -3 -3 -3 -3 -3 -2 -2 -2 -2 -1 -1 -1 -1 -1 -1 -1 -1 -1 -0 -0
-10 -10 -10 -10 -11 -11 -11 -11 -10 -10 -9 -9 -9 -9 -9 -9 -9 -8 -8 -8 -8 -8 -7 -7 -6 -6 -6 -6 -6 -5 -4 -4 -3 -3 -3 -3 -3 -3 -3 -3 -3 -3 -2 -2 -2 -1 -1 -1 -1 -1 -1 -0 -0 -1
-9 -10 -10 -10 -10 -11 -11 -11 -10 -10 -9 -9 -9 -9 -9 -9 -9 -8 -8 -8 -8 -7 -6 -6 -5 -7 -7 -6 -5 -4 -3 -4 -3 -3 -3 -4 -4 -3 -3 -2 -2 -2 -2 -3 -2 -2 -2 -2 -2 -2 -2 -2 -2 -3
-8 -9 -9 -9 -10 -10 -10 -10 -10 -9 -9 -9 -9 -9 -9 -9 -9 -8 -8 -7 -7 -6 -6 -5 -5 -6 -6 -5 -4 -4 -4 -3 -3 -4 -6 -6 -5 -4 -4 -4 -3 -3 -3 -3 -3 -2 -3 -3 -3 -3 -3 -4 -5 -5
-8 -8 -9 -9 -9 -9 -9 -9 -9 -9 -9 -8 -8 -8 -10 -9 -8 -8 -7 -7 -6 -7 -5 -5 -5 -5 -6 -5 -4 -5 -5 -6 -7 -8 -7 -7 -6 -5 -5 -5 -4 -4 -4 -4 -4 -4 -3 -4 -4 -5 -5 -6 -7 -8
-8 -8 -8 -9 -9 -9 -9 -9 -9 -8 -8 -8 -8 -8 -8 -9 -9 -8 -7 -7 -7 -6 -6 -6 -5 -5 -5 -5 -6 -6 -7 -10 -10 -9 -8 -7 -6 -6 -6 -5 -5 -5 -5 -5 -5 -6 -6 -6 -7 -7 -7 -9 -9 -9
-8 -8 -8 -8 -9 -9 -9 -9 -9 -9 -9 -9 -10 -9 -9 -9 -9 -8 -7 -7 -7 -6 -5 -6 -6 -6 -7 -7 -9 -9 -12 -12 -11 -10 -8 -8 -7 -7 -7 -7 -7 -7 -7 -7 -7 -8 -8 -8 -9 -9 -10 -10 -10 -10
-8 -8 -8 -8 -8 -8 -8 -9 -9 -9 -10 -11 -10 -10 -9 -9 -7 -7 -7 -7 -7 -6 -6 -6 -6 -7 -8 -11 -12 -13 -12 -11 -10 -10 -9 -8 -8 -8 -8 -8 -8 -9 -9 -9 -9 -9 -10 -10 -11 -11 -11 -11 -11 -11
-7 -7 -8 -8 -9 -9 -9 -9 -9 -11 -11 -11 -11 -10 -9 -8 -7 -7 -6 -6 -6 -6 -6 -7 -8 -10 -12 -12 -12 -12 -12 -11 -11 -10 -10 -9 -9 -9 -9 -10 -10 -10 -10 -10 -10 -11 -11 -11 -11 -11 -12 -12 -12 -12
-8 -8 -8 -9 -9 -9 -10 -10 -11 -11 -12 -11 -10 -9 -9 -8 -8 -7 -7 -7 -7 -7 -7 -10 -12 -12 -12 -12 -12 -12 -12 -11 -11 -11 -10 -11 -11 -11 -11 -11 -11 -11 -11 -11 -11 -11 -12 -12 -12 -12 -12 -13 -13 -13
-8 -8 -9 -9 -9 -8 -10 -10 -11 -11 -12 -12 -12 -11 -11 -11 -9 -8 -8 -9 -7 -8 -12 -12 -12 -12 -12 -12 -12 -12 -12 -12 -12 -11 -11 -12 -12 -12 -12 -12 -12 -12 -12 -12 -12 -12 -13 -13 -13 -13 -13 -13 -14 -14
-8 -9 -9 -9 -8 -8 -9 -10 -10 -11 -12 -12 -11 -10 -10 -10 -9 -9 -9 -6 -9 -13 -13 -13 -12 -12 -12 -12 -12 -12 -12 -13 -12 -12 -12 -12 -12 -12 -12 -12 -13 -13 -13 -13 -13 -13 -13 -14 -14 -14 -14 -15 -15 -15
-7 -7 -7 -7 -8 -9 -9 -10 -10 -10 -11 -11 -10 -10 -10 -10 -10 -11 -11 -12 -14 -15 -15 -15 -14 -14 -14 -13 -13 -13 -13 -13 -13 -13 -13 -13 -13 -13 -13 -14 -14 -14 -14 -14 -14 -14 -15 -15 -15 -15 -15 -16 -16 -16
-7 -7 -7 -7 -8 -9 -10 -10 -10 -10 -11 -10 -11 -12 -11 -12 -12 -12 -13 -14 -15 -15 -16 -15 -15 -15 -15 -15 -14 -14 -14 -14 -14 -14 -14 -14 -14 -14 -14 -14 -15 -15 -15 -15 -15 -15 -15 -15 -16 -16 -16 -17 -17 -17
-7 -7 -7 -8 -9 -9 -10 -10 -10 -10 -11 -11 -11 -12 -12 -12 -13 -14 -14 -15 -15 -16 -16 -16 -16 -16 -16 -16 -15 -15 -15 -15 -15 -15 -15 -15 -15 -15 -15 -15 -15 -15 -16 -16 -16 -16 -16 -16 -17 -17 -18 -18 -18 -18
-6 -7 -7 -8 -9 -9 -10 -10 -11 -11 -11 -11 -12 -13 -13 -13 -13 -14 -14 -15 -15 -16 -16 -16 -16 -16 -16 -16 -16 -16 -16 -16 -16 -16 -16 -16 -16 -16 -16 -16 -16 -16 -16 -17 -17 -17 -18 -18 -18 -18 -18 -18 -18 -19
-8 -9 -8 -8 -8 -9 -10 -10 -11 -11 -11 -12 -12 -13 -13 -13 -13 -14 -15 -16 -16 -16 -17 -17 -17 -17 -17 -17 -17 -16 -16 -17 -17 -17 -17 -17 -17 -17 -17 -17 -17 -18 -18 -18 -18 -19 -19 -19 -19 -19 -19 -19 -19 -20
-9 -10 -9 -10 -10 -10 -11 -11 -11 -12 -12 -13 -13 -13 -13 -13 -13 -14 -15 -16 -17 -17 -17 -17 -17 -17 -17 -17 -17 -17 -17 -17 -17 -17 -17 -18 -18 -18 -18 -18 -18 -19 -19 -19 -19 -19 -19 -19 -19 -19 -20 -20 -20 -21
-10 -10 -11 -11 -11 -11 -12 -12 -13 -13 -13 -13 -14 -14 -14 -14 -14 -15 -16 -17 -17 -18 -18 -18 -18 -18 -18 -18 -18 -18 -18 -18 -18 -19 -19 -19 -19 -19 -19 -19 -20 -20 -20 -20 -20 -20 -20 -20 -20 -20 -20 -21 -21 -21
-11 -12 -12 -12 -12 -12 -13 -13 -14 -14 -14 -14 -14 -15 -15 -15 -16 -16 -17 -17 -18 -18 -18 -18 -19 -19 -19 -19 -19 -19 -19 -19 -19 -19 -19 -19 -19 -20 -20 -20 -20 -20 -20 -20 -20 -20 -20 -21 -21 -21 -21 -21 -22 -22
-12 -12 -13 -13 -13 -14 -14 -14 -14 -14 -15 -15 -15 -16 -16 -16 -17 -17 -18 -18 -18 -19 -19 -19 -19 -20 -20 -20 -20 -20 -20 -20 -20 -20 -20 -20 -20 -20 -20 -20 -20 -20 -20 -21 -21 -21 -21 -21 -21 -22 -22 -22 -22 -23
-13 -13 -14 -14 -14 -14 -14 -15 -15 -15 -15 -15 -16 -16 -17 -17 -18 -18 -18 -19 -19 -19 -20 -20 -20 -20 -20 -20 -20 -20 -20 -20 -20 -20 -20 -21 -21 -21 -21 -21 -21 -21 -21 -21 -21 -21 -21 -22 -22 -22 -22 -23 -23 -23
-14 -14 -14 -14 -14 -15 -15 -15 -15 -15 -16 -16 -17 -17 -18 -18 -18 -19 -19 -19 -20 -20 -20 -20 -20 -20 -20 -20 -20 -20 -20 -21 -21 -21 -21 -21 -21 -21 -21 -21 -21 -21 -21 -21 -21 -22 -22 -22 -22 -22 -22 -23 -23 -23

GFSWCAN_700_temp_069.txt.gz
Temp
-8 -8 -8 -8 -8 -8 -8 -8 -8 -9 -9 -9 -9 -9 -9 -9 -9 -9 -8 -8 -7 -7 -6 -6 -5 -5 -5 -5 -5 -4 -4 -4 -4 -4 -4 -3 -3 -1 -2 1 2 2 1 1 1 1 1 4 4 5 5 6 6 6
-9 -8 -8 -8 -8 -8 -8 -8 -8 -8 -9 -9 -9 -9 -9 -9 -9 -9 -8 -8 -7 -7 -7 -6 -5 -5 -5 -5 -6 -5 -4 -3 -4 -3 -4 -3 -2 -1 -0 1 1 1 2 2 2 2 2 3 3 3 4 5 5 5
-8 -8 -8 -8 -8 -9 -9 -8 -8 -8 -8 -9 -8 -8 -9 -9 -9 -9 -8 -8 -7 -6 -6 -6 -6 -5 -5 -5 -6 -5 -4 -4 -4 -3 -3 -3 -2 -1 -0 1 1 1 2 2 1 1 2 2 1 1 4 4 4 5
-8 -8 -8 -8 -8 -9 -9 -8 -8 -8 -8 -8 -8 -9 -9 -9 -9 -9 -8 -7 -7 -7 -6 -6 -5 -5 -5 -6 -5 -5 -5 -4 -4 -3 -4 -4 -2 -1 0 1 1 1 2 2 1 2 -1 1 -0 1 3 3 3 4
-8 -8 -8 -8 -8 -9 -9 -8 -8 -8 -8 -8 -8 -8 -9 -9 -9 -9 -8 -8 -7 -7 -6 -6 -5 -6 -5 -6 -5 -5 -5 -5 -5 -4 -3 -4 -3 -1 -1 0 1 1 1 1 1 2 1 2 2 2 2 2 2 3
-8 -8 -8 -8 -8 -8 -8 -8 -8 -8 -8 -8 -8 -8 -8 -8 -9 -8 -8 -7 -7 -7 -6 -6 -7 -6 -6 -5 -5 -5 -5 -5 -5 -5 -4 -4 -3 -2 -1 -0 0 1 1 1 2 2 1 1 1 1 1 2 2 2
-8 -8 -8 -8 -8 -8 -8 -8 -8 -8 -8 -8 -9 -9 -9 -9 -8 -8 -8 -7 -7 -7 -6 -7 -6 -6 -6 -5 -5 -5 -5 -5 -5 -5 -4 -3 -4 -3 -3 -1 -1 0 1 1 1 1 1 1 1 1 1 1 1 1
-8 -8 -8 -8 -8 -8 -8 -8 -8 -8 -8 -9 -9 -9 -8 -8 -8 -7 -7 -7 -7 -7 -7 -7 -7 -7 -6 -6 -5 -6 -6 -6 -5 -5 -5 -4 -4 -3 -2 -2 -1 -0 0 0 1 1 0 0 0 0 1 1 1 1
-9 -8 -8 -8 -8 -8 -8 -8 -8 -9 -8 -8 -8 -8 -8 -8 -7 -7 -7 -7 -7 -7 -8 -7 -7 -7 -7 -7 -6 -6 -6 -7 -6 -5 -4 -4 -4 -4 -4 -2 -2 -2 -1 -1 -0 0 0 -0 -1 -1 0 1 0 0
-9 -9 -9 -9 -8 -8 -9 -8 -9 -9 -9 -8 -8 -8 -8 -8 -8 -8 -8 -8 -8 -8 -8 -7 -6 -6 -6 -6 -6 -6 -6 -5 -5 -5 -5 -5 -4 -4 -3 -3 -2 -2 -2 -2 -1 -1 -1 -1 -1 -1 -1 -1 -1 -1
-9 -9 -9 -9 -9 -9 -9 -9 -9 -8 -8 -8 -8 -8 -8 -8 -8 -8 -8 -8 -8 -8 -7 -7 -6 -6 -6 -6 -6 -6 -6 -5 -5 -5 -5 -5 -5 -4 -4 -3 -3 -3 -3 -3 -2 -2 -2 -2 -2 -2 -2 -2 -2 -2
-10 -9 -9 -9 -9 -9 -9 -9 -9 -9 -9 -8 -8 -8 -9 -8 -8 -8 -8 -7 -7 -7 -7 -7 -6 -6 -6 -6 -5 -6 -6 -6 -5 -5 -5 -5 -5 -4 -3 -3 -3 -3 -3 -3 -3 -3 -3 -3 -3 -3 -3 -3 -2 -3
-10 -9 -9 -9 -9 -9 -9 -9 -9 -9 -9 -9 -9 -8 -8 -8 -8 -8 -8 -8 -8 -8 -7 -7 -7 -7 -6 -6 -6 -6 -5 -5 -4 -5 -7 -10 -8 -6 -5 -4 -4 -3 -3 -3 -3 -3 -3 -3 -3 -3 -3 -3 -3 -3
-10 -10 -9 -9 -10 -10 -9 -9 -9 -9 -8 -8 -8 -8 -8 -9 -9 -9 -8 -8 -8 -8 -7 -7 -7 -7 -7 -6 -6 -6 -6 -6 -6 -8 -11 -10 -9 -7 -5 -5 -5 -5 -5 -4 -4 -4 -4 -4 -3 -3 -4 -4 -4 -5
-10 -9 -9 -9 -9 -9 -9 -9 -9 -8 -7 -7 -8 -8 -9 -9 -9 -8 -8 -8 -7 -8 -7 -7 -7 -7 -6 -6 -6 -6 -6 -9 -11 -12 -12 -10 -9 -7 -6 -6 -5 -5 -5 -6 -5 -5 -5 -5 -5 -5 -6 -6 -7 -8
-9 -9 -9 -9 -9 -9 -8 -8 -8 -7 -7 -7 -8 -9 -8 -8 -8 -8 -8 -8 -8 -8 -8 -7 -7 -6 -6 -7 -7 -9 -10 -13 -13 -13 -12 -11 -9 -9 -8 -7 -7 -7 -8 -7 -7 -7 -7 -8 -8 -8 -8 -9 -10 -10
-9 -9 -9 -9 -8 -8 -8 -7 -7 -7 -7 -9 -11 -11 -10 -9 -8 -8 -8 -8 -8 -8 -7 -7 -6 -7 -8 -8 -11 -13 -14 -14 -13 -13 -12 -11 -10 -9 -9 -9 -9 -9 -9 -9 -9 -9 -9 -9 -10 -10 -10 -10 -10 -11
-9 -9 -10 -9 -8 -8 -8 -8 -8 -9 -11 -12 -12 -11 -11 -10 -9 -9 -8 -8 -8 -7 -7 -6 -6 -7 -9 -13 -15 -15 -15 -14 -13 -13 -12 -12 -12 -11 -11 -10 -10 -10 -10 -10 -10 -10 -10 -11 -11 -11 -11 -11 -12 -12
-9 -9 -9 -9 -9 -9 -9 -9 -9 -11 -13 -13 -12 -11 -10 -9 -8 -8 -7 -7 -7 -7 -7 -7 -7 -8 -10 -13 -14 -14 -13 -13 -13 -12 -12 -12 -12 -12 -11 -11 -11 -11 -11 -11 -12 -12 -12 -12 -12 -12 -12 -12 -12 -13
-8 -8 -9 -9 -9 -8 -9 -11 -10 -12 -13 -13 -12 -11 -10 -9 -9 -7 -7 -7 -7 -8 -7 -7 -10 -11 -13 -13 -13 -13 -13 -13 -13 -13 -12 -12 -12 -12 -12 -12 -12 -12 -12 -12 -12 -12 -13 -13 -13 -13 -13 -13 -13 -13
-9 -9 -9 -8 -7 -7 -9 -11 -12 -12 -13 -14 -13 -11 -11 -10 -9 -8 -7 -7 -7 -7 -9 -12 -12 -12 -13 -13 -13 -13 -14 -14 -14 -14 -13 -13 -13 -14 -13 -13 -13 -13 -13 -13 -13 -13 -13 -13 -13 -14 -14 -14 -14 -14
-8 -8 -8 -8 -6 -7 -9 -11 -11 -12 -12 -13 -12 -12 -12 -11 -11 -11 -10 -8 -10 -13 -13 -14 -14 -14 -14 -14 -14 -14 -14 -14 -14 -14 -14 -14 -14 -14 -14 -14 -14 -14 -14 -14 -14 -14 -14 -14 -15 -15 -14 -14 -14 -15
-8 -8 -7 -6 -7 -8 -9 -9 -9 -10 -11 -11 -10 -10 -11 -10 -11 -11 -11 -14 -15 -16 -16 -15 -15 -15 -15 -14 -14 -15 -15 -15 -15 -15 -15 -15 -15 -15 -15 -15 -15 -15 -15 -14 -15 -15 -15 -15 -15 -15 -15 -15 -16 -16
-7 -6 -6 -7 -8 -9 -9 -9 -9 -9 -10 -9 -10 -10 -10 -11 -11 -12 -13 -15 -16 -16 -15 -15 -15 -15 -15 -15 -15 -15 -15 -15 -15 -15 -15 -15 -15 -15 -15 -15 -15 -15 -15 -15 -15 -15 -16 -16 -16 -16 -16 -16 -17 -17
-6 -7 -7 -8 -8 -9 -9 -9 -9 -9 -10 -10 -10 -11 -12 -11 -11 -13 -14 -15 -15 -15 -15 -15 -16 -16 -16 -16 -16 -16 -16 -16 -16 -16 -16 -16 -16 -16 -16 -16 -16 -16 -16 -16 -16 -16 -16 -17 -17 -17 -17 -18 -18 -18
-6 -7 -7 -8 -8 -8 -9 -10 -10 -10 -10 -11 -12 -12 -12 -12 -13 -13 -14 -14 -15 -16 -16 -16 -16 -16 -16 -16 -16 -16 -16 -16 -16 -16 -16 -16 -16 -16 -17 -17 -17 -17 -17 -17 -17 -17 -17 -18 -18 -18 -18 -18 -18 -19
-7 -8 -8 -8 -8 -8 -9 -10 -11 -11 -11 -12 -12 -12 -12 -12 -13 -14 -14 -15 -16 -16 -17 -17 -17 -17 -17 -17 -17 -17 -17 -17 -17 -17 -17 -17 -17 -17 -17 -17 -17 -18 -18 -18 -18 -18 -19 -19 -19 -19 -19 -19 -19 -20
-8 -10 -9 -9 -9 -10 -10 -10 -11 -12 -12 -13 -13 -13 -13 -13 -14 -14 -14 -15 -16 -17 -17 -18 -18 -18 -18 -18 -18 -18 -18 -18 -18 -18 -18 -18 -18 -18 -18 -18 -18 -19 -19 -19 -19 -19 -19 -19 -19 -20 -20 -20 -20 -20
-9 -10 -10 -10 -10 -10 -11 -12 -12 -13 -13 -13 -13 -14 -14 -14 -14 -15 -15 -16 -17 -18 -18 -18 -18 -18 -18 -18 -18 -19 -19 -19 -19 -18 -19 -19 -19 -19 -19 -19 -19 -20 -20 -20 -20 -20 -20 -20 -20 -20 -20 -20 -21 -21
-10 -11 -11 -11 -10 -11 -12 -13 -13 -13 -14 -14 -14 -14 -15 -15 -15 -16 -16 -17 -18 -18 -18 -19 -19 -19 -19 -19 -19 -19 -19 -19 -19 -19 -19 -19 -19 -20 -20 -20 -20 -20 -20 -20 -20 -20 -20 -20 -21 -21 -21 -21 -21 -21
-11 -11 -11 -11 -12 -13 -13 -13 -14 -14 -14 -14 -14 -15 -15 -16 -16 -17 -17 -18 -18 -18 -19 -19 -19 -19 -19 -20 -20 -20 -20 -20 -20 -20 -20 -20 -20 -20 -20 -21 -21 -21 -21 -21 -21 -21 -21 -21 -21 -21 -21 -21 -22 -22
-12 -12 -12 -12 -13 -13 -14 -14 -14 -14 -14 -15 -15 -16 -16 -17 -17 -18 -18 -18 -19 -19 -19 -20 -20 -20 -20 -20 -20 -20 -20 -20 -20 -20 -20 -21 -21 -21 -21 -21 -21 -21 -21 -21 -21 -21 -21 -21 -21 -21 -21 -22 -22 -22
-12 -13 -13 -13 -13 -14 -14 -14 -14 -14 -15 -15 -16 -16 -17 -17 -18 -18 -19 -19 -19 -19 -20 -20 -20 -20 -20 -20 -20 -20 -20 -20 -21 -21 -21 -21 -21 -21 -21 -21 -21 -21 -21 -21 -21 -21 -21 -21 -21 -21 -22 -22 -22 -22

GFSWCAN_700_temp_072.txt.gz
Temp
-9 -9 -9 -8 -8 -9 -9 -9 -9 -9 -9 -9 -9 -9 -9 -9 -9 -9 -9 -9 -8 -7 -7 -7 -6 -5 -5 -5 -4 -3 -4 -4 -4 -4 -4 -3 -3 -3 -2 -2 -0 -1 -1 1 1 1 1 3 4 4 3 4 5 5
-9 -8 -8 -8 -8 -9 -9 -9 -9 -8 -8 -8 -9 -9 -9 -9 -9 -9 -9 -9 -9 -8 -7 -7 -6 -5 -4 -4 -4 -4 -4 -4 -4 -4 -4 -4 -3 -3 -2 -2 -0 0 1 1 1 2 2 3 3 2 2 3 4 4
-8 -8 -8 -8 -8 -9 -9 -9 -9 -9 -8 -8 -9 -9 -9 -9 -9 -9 -10 -9 -9 -8 -7 -7 -6 -6 -5 -5 -4 -5 -5 -4 -4 -4 -4 -4 -4 -3 -2 -1 -0 1 1 1 2 2 2 2 2 2 2 2 3 3
-8 -8 -8 -8 -8 -8 -8 -9 -8 -8 -8 -9 -9 -9 -9 -9 -9 -9 -9 -8 -8 -7 -7 -7 -7 -6 -6 -5 -5 -4 -4 -5 -5 -5 -4 -4 -4 -3 -3 -2 -1 0 1 1 1 1 2 1 1 1 2 1 2 2
-8 -8 -8 -8 -8 -8 -8 -8 -8 -8 -8 -9 -9 -9 -9 -9 -9 -9 -9 -8 -7 -7 -6 -7 -7 -6 -6 -5 -5 -6 -5 -5 -5 -5 -5 -5 -4 -3 -3 -2 -1 0 1 0 1 2 1 1 1 2 2 3 -0 1
-8 -8 -8 -8 -8 -8 -8 -8 -8 -8 -8 -8 -9 -9 -9 -9 -9 -9 -9 -9 -8 -6 -7 -7 -7 -6 -6 -6 -6 -6 -5 -5 -5 -5 -5 -4 -4 -3 -3 -3 -1 -1 -0 -0 0 1 1 1 1 1 1 1 0 2
-8 -8 -8 -8 -8 -8 -8 -8 -8 -8 -9 -8 -9 -8 -9 -9 -8 -8 -8 -7 -7 -7 -6 -7 -7 -6 -6 -6 -6 -6 -6 -6 -6 -5 -5 -5 -4 -4 -5 -5 -2 -1 -0 -0 0 1 1 1 1 1 1 0 0 0
-8 -8 -8 -8 -8 -9 -8 -8 -8 -8 -8 -8 -9 -9 -9 -9 -8 -8 -8 -7 -8 -7 -6 -7 -6 -6 -6 -7 -7 -6 -5 -5 -5 -5 -5 -5 -5 -5 -5 -4 -3 -1 -1 -1 0 0 1 0 0 -0 0 0 1 1
-8 -8 -8 -8 -8 -9 -9 -8 -8 -8 -8 -8 -8 -8 -8 -8 -7 -7 -7 -7 -7 -7 -7 -6 -7 -7 -7 -7 -6 -5 -5 -5 -6 -6 -5 -5 -6 -5 -4 -4 -4 -3 -1 -1 -0 -0 -0 -0 -0 -0 -0 -0 -0 -0
-9 -9 -9 -9 -9 -9 -9 -8 -9 -8 -8 -8 -8 -8 -8 -8 -7 -7 -7 -7 -7 -6 -6 -6 -6 -6 -6 -6 -6 -6 -7 -6 -6 -5 -6 -6 -6 -5 -5 -4 -4 -3 -2 -1 -1 -1 -2 -1 -1 -1 -1 -1 -1 -1
-9 -9 -9 -9 -8 -8 -8 -8 -8 -8 -8 -8 -7 -8 -8 -8 -8 -8 -8 -8 -7 -7 -7 -6 -6 -6 -6 -6 -6 -6 -6 -6 -6 -6 -6 -6 -6 -6 -5 -5 -4 -4 -3 -3 -3 -2 -2 -2 -2 -2 -2 -2 -2 -2
-9 -9 -9 -9 -9 -9 -9 -8 -9 -8 -8 -7 -8 -8 -8 -8 -7 -7 -7 -7 -7 -8 -7 -7 -6 -6 -6 -6 -6 -6 -6 -6 -6 -6 -6 -7 -8 -5 -5 -4 -5 -4 -4 -4 -3 -3 -3 -3 -3 -3 -3 -3 -3 -3
-9 -9 -9 -9 -9 -9 -9 -9 -8 -8 -8 -7 -7 -7 -7 -7 -8 -7 -8 -9 -8 -8 -8 -7 -7 -7 -6 -6 -6 -6 -6 -6 -6 -5 -8 -10 -9 -8 -7 -6 -5 -4 -3 -3 -2 -2 -2 -3 -3 -3 -3 -3 -3 -3
-9 -9 -9 -9 -8 -9 -9 -9 -9 -8 -7 -6 -6 -7 -7 -8 -9 -8 -8 -9 -9 -8 -8 -7 -7 -7 -7 -7 -6 -6 -6 -6 -7 -10 -12 -11 -10 -9 -8 -7 -6 -4 -4 -4 -3 -3 -3 -4 -4 -4 -5 -5 -5 -5
-9 -9 -9 -9 -9 -9 -9 -8 -8 -7 -7 -7 -8 -8 -10 -10 -9 -9 -8 -8 -8 -8 -8 -7 -7 -7 -7 -7 -7 -7 -7 -10 -12 -13 -12 -11 -11 -10 -9 -8 -7 -6 -5 -6 -6 -6 -6 -6 -6 -7 -7 -7 -8 -8
-9 -9 -10 -9 -9 -9 -8 -8 -7 -7 -7 -7 -9 -10 -9 -9 -9 -8 -8 -8 -8 -8 -8 -7 -7 -7 -7 -7 -8 -10 -10 -13 -13 -13 -12 -11 -11 -11 -10 -10 -9 -8 -8 -8 -8 -8 -8 -8 -8 -9 -9 -10 -10 -10
-9 -9 -9 -9 -8 -8 -8 -8 -7 -7 -8 -10 -11 -10 -9 -9 -8 -8 -8 -9 -9 -9 -8 -7 -7 -8 -8 -8 -10 -12 -13 -14 -13 -13 -13 -12 -12 -12 -12 -11 -10 -10 -10 -11 -10 -10 -10 -10 -10 -10 -10 -10 -11 -11
-9 -8 -8 -8 -8 -8 -7 -7 -8 -10 -13 -13 -12 -11 -11 -10 -9 -8 -9 -9 -8 -8 -7 -7 -8 -8 -9 -11 -13 -13 -14 -14 -14 -14 -13 -13 -13 -13 -12 -12 -12 -11 -11 -10 -11 -11 -11 -11 -11 -11 -11 -12 -12 -12
-9 -9 -9 -9 -8 -8 -8 -10 -10 -13 -14 -13 -12 -11 -11 -10 -9 -9 -9 -8 -8 -7 -7 -7 -8 -9 -12 -13 -13 -14 -14 -15 -15 -14 -14 -14 -13 -13 -13 -13 -12 -12 -12 -12 -12 -12 -12 -12 -12 -12 -13 -13 -13 -13
-9 -9 -9 -9 -9 -9 -10 -11 -12 -13 -15 -13 -13 -11 -10 -9 -10 -10 -9 -8 -8 -8 -8 -8 -11 -13 -14 -14 -15 -15 -14 -14 -14 -14 -14 -14 -14 -14 -14 -14 -13 -13 -13 -13 -13 -13 -14 -13 -13 -13 -13 -14 -14 -14
-9 -9 -9 -8 -9 -8 -11 -11 -12 -13 -14 -14 -13 -12 -11 -11 -9 -9 -8 -8 -8 -8 -10 -14 -15 -15 -15 -15 -15 -15 -15 -14 -15 -14 -15 -14 -15 -15 -15 -14 -14 -14 -14 -14 -14 -14 -14 -14 -14 -14 -14 -14 -14 -14
-9 -9 -9 -8 -7 -8 -10 -11 -11 -12 -12 -13 -12 -11 -11 -11 -10 -10 -10 -7 -10 -14 -14 -14 -14 -14 -14 -14 -14 -14 -14 -14 -15 -15 -15 -15 -15 -15 -15 -15 -15 -15 -15 -15 -15 -14 -14 -14 -14 -14 -14 -14 -14 -14
-9 -8 -7 -7 -8 -10 -11 -11 -11 -12 -11 -11 -10 -10 -10 -9 -10 -10 -10 -11 -12 -13 -13 -13 -13 -14 -14 -14 -14 -14 -14 -15 -15 -15 -15 -15 -15 -15 -15 -15 -15 -15 -15 -15 -15 -15 -15 -15 -15 -15 -15 -15 -16 -16
-7 -6 -6 -7 -8 -9 -10 -10 -10 -10 -11 -11 -11 -11 -11 -12 -12 -11 -12 -14 -14 -15 -15 -15 -15 -15 -15 -15 -15 -15 -15 -16 -16 -16 -16 -16 -16 -16 -16 -16 -15 -15 -16 -16 -16 -15 -15 -15 -16 -16 -16 -16 -17 -17
-6 -7 -7 -8 -8 -9 -9 -9 -9 -9 -10 -10 -10 -11 -13 -13 -12 -13 -14 -14 -15 -15 -16 -16 -16 -16 -16 -16 -16 -16 -16 -16 -16 -17 -16 -16 -16 -16 -16 -16 -17 -16 -16 -16 -17 -17 -17 -17 -17 -17 -18 -18 -18 -18
-6 -7 -7 -8 -8 -8 -9 -9 -10 -10 -10 -10 -11 -11 -12 -12 -12 -13 -13 -14 -14 -16 -16 -17 -17 -17 -17 -17 -17 -17 -17 -17 -17 -17 -17 -18 -17 -17 -17 -17 -17 -17 -17 -17 -17 -18 -18 -18 -18 -19 -19 -19 -19 -19
-7 -8 -7 -7 -7 -8 -9 -9 -10 -10 -10 -11 -11 -12 -12 -12 -13 -14 -14 -14 -15 -16 -17 -17 -17 -18 -18 -18 -18 -18 -18 -18 -18 -18 -18 -18 -18 -18 -18 -18 -18 -18 -18 -18 -18 -19 -19 -19 -19 -19 -19 -19 -19 -20
-7 -9 -8 -8 -9 -9 -9 -10 -10 -11 -12 -12 -12 -12 -13 -13 -14 -14 -15 -15 -16 -17 -17 -18 -18 -18 -18 -18 -18 -18 -18 -19 -19 -19 -18 -18 -18 -19 -19 -19 -19 -19 -19 -19 -20 -20 -20 -20 -20 -20 -20 -20 -20 -20
-9 -9 -9 -10 -9 -9 -10 -11 -12 -13 -13 -13 -13 -13 -14 -14 -15 -15 -15 -16 -17 -18 -18 -19 -19 -19 -19 -19 -19 -19 -19 -19 -19 -19 -19 -19 -20 -19 -19 -20 -20 -20 -20 -20 -20 -20 -20 -20 -20 -20 -20 -21 -21 -21
-9 -10 -10 -10 -10 -11 -12 -13 -13 -13 -13 -13 -14 -14 -14 -15 -15 -16 -16 -17 -17 -18 -18 -19 -19 -19 -19 -19 -20 -20 -20 -19 -20 -20 -20 -20 -20 -20 -20 -20 -20 -21 -21 -21 -21 -21 -21 -21 -21 -21 -21 -21 -21 -21
-10 -11 -10 -10 -11 -12 -13 -13 -13 -14 -14 -14 -14 -15 -15 -16 -16 -17 -17 -18 -18 -19 -19 -19 -20 -20 -20 -21 -20 -20 -20 -20 -20 -20 -20 -20 -20 -20 -21 -21 -21 -21 -21 -21 -21 -21 -21 -21 -21 -21 -21 -21 -21 -22
-11 -11 -11 -11 -12 -13 -13 -14 -14 -14 -14 -14 -15 -15 -16 -16 -17 -18 -18 -19 -19 -19 -19 -20 -20 -20 -20 -21 -21 -21 -20 -20 -20 -20 -21 -21 -21 -21 -21 -21 -21 -21 -21 -21 -21 -21 -21 -21 -21 -21 -21 -22 -22 -22
-12 -12 -12 -12 -12 -13 -13 -13 -14 -14 -14 -15 -15 -16 -17 -17 -18 -18 -19 -19 -20 -20 -20 -20 -21 -21 -21 -21 -21 -21 -21 -21 -21 -21 -21 -21 -21 -21 -21 -21 -21 -21 -21 -21 -21 -21 -21 -21 -21 -22 -22 -22 -22 -22